Location: ????????
(37.6846°N, 24.0673°E)
Time: 11:15:01
(UTC+00:00)

ATLAS 3B R/B - Pass Details

Date: 14 July 2020
Orbit: 1021 x 1174 km, 63.8° (Epoch: 08 August)

Event Time Altitude Azimuth Distance (km) Brightness Sun altitude
Rises 02:05:51 0° 177° (S) 3,779 5.2 -11.9°
Reaches altitude 10° 02:08:52 10° 165° (SSE) 2,816 4.7 -11.5°
Maximum altitude 02:14:15 27° 110° (ESE) 1,847 4.3 -10.6°
Drops below altitude 10° 02:19:36 10° 55° (NE) 2,813 6.6 -9.8°
Sets 02:22:36 0° 44° (NE) 3,774 7.7 -9.3°
